Wind_Speed
11 12 13 13 14 14 15 16 16 16 17 17 17 18 19 19 20 20 21 22 23 24 25 26 27 27 28 28 29 30 31 32 32 33 34 35 36 37 37 38 38 38 39
11 11 12 13 13 14 15 16 16 16 17 17 17 18 19 19 20 21 22 23 24 24 25 26 27 27 28 28 29 30 31 32 33 33 33 34 34 35 35 35 35 35 36
11 12 13 14 14 15 16 17 17 17 17 17 17 18 18 20 21 21 22 23 24 24 25 25 26 28 28 28 29 30 31 33 33 33 33 34 34 34 34 34 34 34 34
12 13 14 14 14 15 16 17 17 17 17 18 18 18 19 20 21 21 22 23 24 25 25 26 27 27 28 28 29 31 32 33 33 33 32 33 33 33 33 33 32 33 33
13 14 14 14 14 15 16 16 17 17 18 18 18 18 19 20 21 21 22 24 25 26 26 27 27 28 28 30 31 31 32 32 32 32 32 31 31 31 32 32 33 32 32
14 15 14 14 14 15 16 17 17 17 17 17 17 17 18 19 20 22 23 25 26 26 26 27 27 28 29 30 30 30 31 31 32 32 31 31 30 29 28 29 30 30 30
14 14 14 13 14 15 16 16 16 16 16 16 16 17 18 19 21 23 25 26 26 26 27 27 28 28 29 29 29 29 30 30 30 30 30 29 28 27 26 26 25 25 26
14 13 13 13 13 14 15 15 16 16 16 16 16 18 19 20 22 23 25 26 26 26 26 27 27 27 28 28 28 28 28 27 28 28 28 27 26 25 25 23 22 22 21
13 13 13 13 14 14 14 15 15 15 16 16 17 18 20 21 23 25 26 26 26 27 27 26 26 26 27 27 26 25 25 25 26 26 26 26 25 24 23 22 21 20 20
13 13 13 14 14 14 14 14 14 15 16 16 18 20 21 23 24 26 27 27 27 27 26 26 26 26 26 26 24 24 23 24 25 25 25 25 25 24 23 22 21 21 21
13 13 13 13 13 13 13 14 14 15 16 17 19 20 22 23 25 27 27 27 27 26 26 26 26 26 25 24 24 23 24 24 25 25 25 25 24 23 22 21 21 20 19
13 13 13 13 13 13 13 14 14 15 17 18 19 21 22 24 25 26 27 27 27 26 27 27 26 25 25 24 24 24 25 25 25 25 25 25 24 23 22 21 20 18 17
13 13 13 13 14 14 13 14 15 15 17 19 20 21 23 24 25 26 26 27 26 26 27 26 26 25 25 24 24 24 24 25 25 26 26 25 24 23 23 21 20 17 17
13 13 13 14 14 14 14 14 15 16 18 19 20 21 23 24 25 26 26 26 27 27 27 26 25 25 25 24 24 24 25 25 26 26 26 25 24 23 21 20 19 17 16
13 13 13 14 14 14 14 14 15 16 18 19 20 22 23 24 25 26 26 26 27 27 28 27 27 26 25 25 25 25 25 25 25 26 26 25 24 23 21 20 19 17 16
13 13 14 14 13 13 14 14 15 17 18 19 20 21 22 24 24 25 25 26 27 28 29 28 27 26 25 25 25 25 25 25 26 26 25 25 24 22 21 20 18 17 16
13 14 14 14 14 14 14 15 15 17 18 18 19 20 21 23 23 24 25 26 27 28 28 28 28 27 26 26 25 26 25 25 25 25 24 23 23 22 21 20 20 17 16
14 14 14 15 15 15 15 15 15 16 17 18 18 20 21 22 22 24 26 27 27 28 29 28 28 28 27 26 26 26 25 24 25 25 24 23 22 22 22 21 21 20 17
14 14 15 15 15 15 15 15 15 16 17 17 18 19 21 21 23 24 26 27 28 28 29 29 28 28 28 27 26 25 25 25 25 25 24 24 23 23 23 21 20 19 17
14 15 16 15 15 15 15 15 15 16 17 17 18 19 20 21 23 24 25 27 27 28 29 28 28 28 28 28 26 25 25 25 25 25 25 24 24 24 22 21 19 18 17
15 15 16 15 15 15 15 15 15 16 17 18 18 20 20 20 22 23 24 25 27 27 28 28 28 28 28 27 26 25 25 25 26 26 25 25 24 24 22 21 19 18 17
16 16 16 15 14 14 14 14 15 16 16 17 18 19 19 20 21 22 23 24 25 27 27 28 28 28 27 27 26 25 25 25 26 26 26 26 25 24 22 21 19 18 17
16 15 15 14 13 13 14 14 14 15 16 17 17 18 18 19 20 21 22 23 24 26 26 27 28 28 27 27 26 25 25 25 25 26 26 26 26 24 22 20 19 18 17
15 14 13 13 13 13 13 13 14 15 15 16 16 17 17 19 20 21 21 22 23 25 26 27 28 28 27 27 26 25 25 25 25 26 26 26 26 26 23 21 19 18 18
14 13 12 12 12 13 13 13 13 14 14 15 16 16 16 18 19 20 21 22 23 23 24 26 27 27 27 26 25 25 25 25 25 25 26 26 25 25 24 23 20 19 18
14 13 13 13 12 13 13 13 13 13 14 14 15 15 16 18 18 20 20 21 21 22 23 24 25 26 26 26 25 24 25 25 25 25 25 25 24 23 23 23 22 20 19
Wind_Direction
307 309 311 313 314 313 310 309 309 306 306 302 304 304 304 306 306 306 307 306 306 305 304 304 304 303 303 301 300 299 296 295 294 291 288 287 286 283 280 276 273 269 267
312 314 315 316 317 318 316 317 315 314 312 310 309 311 310 310 310 308 309 309 309 308 307 307 308 307 305 303 302 302 302 300 297 294 292 290 288 284 281 277 275 271 268
316 320 319 317 318 320 319 319 318 318 316 314 312 313 314 316 316 314 314 313 312 311 311 311 310 309 306 303 303 303 304 304 303 300 295 292 289 285 281 278 275 272 269
316 318 320 319 319 322 323 323 322 322 318 315 315 316 315 317 318 317 317 317 315 313 313 313 312 310 308 306 305 304 306 306 305 306 302 296 291 286 282 278 275 273 270
313 312 314 316 318 321 323 324 323 323 321 319 319 318 318 318 319 319 319 320 319 316 315 314 313 312 310 310 308 307 307 308 308 308 307 304 297 291 286 280 277 274 271
311 312 312 314 314 317 321 323 324 324 324 324 323 322 322 324 324 325 324 322 321 319 317 316 315 314 313 312 311 310 309 310 311 311 310 308 304 299 293 287 281 275 272
312 313 313 313 314 317 320 322 325 327 327 328 328 328 329 329 328 328 328 326 324 322 319 318 317 318 317 316 314 313 313 313 314 314 314 312 309 305 301 295 290 282 277
312 315 315 315 319 322 323 325 327 329 331 330 331 333 333 332 332 331 331 330 328 326 324 323 322 322 321 320 319 319 319 318 318 319 318 317 313 310 306 301 295 288 283
316 316 316 316 318 321 323 328 332 333 334 334 334 334 334 334 334 332 332 330 330 330 329 327 326 326 326 325 323 324 323 323 323 323 323 322 319 315 310 305 299 293 287
316 317 319 319 319 321 326 331 335 336 334 335 335 335 335 336 335 335 335 335 334 334 334 333 331 331 331 330 329 328 327 327 326 327 327 326 324 319 315 310 305 298 289
314 316 319 321 323 325 328 330 333 337 336 336 336 336 336 337 337 338 339 338 338 338 337 336 336 334 333 333 333 332 331 330 330 331 331 330 327 324 320 315 310 305 297
312 313 314 316 320 323 324 327 330 332 336 337 338 338 338 339 339 341 342 340 340 340 339 340 341 340 338 336 335 335 334 334 335 335 334 332 331 329 326 321 315 308 303
313 313 312 313 316 320 321 323 328 331 333 336 336 337 339 340 342 343 344 343 342 343 343 344 343 342 341 339 338 336 335 336 336 336 335 334 332 330 329 327 322 314 305
310 311 313 314 314 318 319 321 325 327 330 333 335 337 338 341 344 347 347 348 348 349 348 347 346 345 344 342 340 339 338 338 338 337 337 336 334 333 330 327 324 319 312
304 308 311 315 314 316 318 319 321 324 328 331 335 338 342 345 347 348 348 349 349 348 349 350 349 347 346 345 344 343 343 342 342 342 340 339 337 336 335 332 327 321 317
299 304 309 313 314 316 316 317 320 324 327 331 335 339 343 345 346 347 348 349 350 350 351 350 349 348 347 346 346 345 344 343 343 344 345 345 345 344 343 340 334 329 324
297 303 307 311 314 317 316 317 320 324 327 330 334 337 340 342 345 346 346 347 349 350 351 351 350 349 348 347 346 345 344 344 345 347 348 348 347 347 346 344 342 336 330
298 302 306 309 312 313 313 315 318 322 326 330 333 336 337 340 343 345 347 348 349 349 350 351 351 351 349 347 346 346 346 347 347 347 347 347 346 345 344 343 342 341 336
295 299 303 306 307 309 310 313 317 323 326 328 330 332 335 338 341 343 345 347 348 349 349 350 351 353 352 350 349 348 349 349 348 347 346 345 344 344 344 343 342 340 338
294 297 301 302 304 306 307 309 314 319 322 325 328 330 332 335 339 342 344 346 348 350 350 350 352 354 354 354 353 352 351 349 349 348 347 346 345 346 346 346 345 343 340
295 296 299 299 301 303 304 306 311 315 318 322 325 329 332 336 339 342 345 348 350 351 352 353 353 353 352 353 354 353 353 353 352 352 351 352 352 351 349 347 346 346 344
296 296 298 299 299 300 301 305 311 313 316 321 326 330 333 336 339 342 345 348 351 352 353 354 355 355 355 355 355 354 354 354 355 357 357 356 355 355 354 353 352 351 350
296 296 298 299 297 296 300 306 311 315 317 321 325 330 334 337 340 343 345 348 350 352 353 355 356 357 357 357 356 355 355 356 357 359 0 0 359 360 359 358 358 358 358
297 297 297 296 294 294 299 305 311 314 317 320 323 329 334 337 340 342 344 346 348 350 352 353 355 357 358 357 357 357 358 359 360 1 2 2 3 4 5 5 5 4 4
298 297 297 296 294 294 297 303 308 312 317 321 324 329 332 336 338 341 343 344 345 348 350 352 353 356 358 359 0 0 360 359 360 1 2 4 6 8 9 9 10 9 7
297 295 295 295 294 295 298 302 307 312 315 319 323 328 332 335 337 340 342 343 345 347 349 351 354 357 360 1 3 3 1 360 0 1 2 4 6 7 7 7 8 8 7
Height
5778 5777 5775 5773 5771 5769 5766 5764 5762 5759 5757 5755 5753 5751 5749 5747 5745 5742 5740 5738 5735 5732 5729 5726 5722 5719 5715 5712 5708 5705 5701 5698 5694 5692 5688 5684 5681 5678 5675 5673 5671 5670 5670
5776 5774 5772 5770 5768 5765 5763 5760 5758 5755 5753 5751 5749 5747 5744 5742 5739 5737 5734 5732 5729 5726 5722 5719 5715 5711 5707 5704 5700 5696 5692 5688 5685 5681 5677 5673 5669 5666 5663 5660 5659 5658 5658
5773 5771 5769 5767 5765 5762 5760 5757 5755 5752 5749 5747 5745 5742 5740 5737 5735 5732 5729 5726 5723 5719 5715 5712 5708 5704 5700 5696 5692 5688 5684 5679 5674 5670 5666 5662 5658 5654 5651 5649 5648 5646 5646
5770 5768 5766 5764 5762 5759 5757 5754 5751 5749 5746 5743 5741 5738 5736 5733 5730 5727 5724 5720 5717 5713 5709 5705 5701 5697 5692 5688 5684 5680 5675 5670 5665 5660 5655 5651 5647 5643 5640 5638 5637 5635 5634
5767 5765 5763 5761 5759 5757 5754 5751 5749 5746 5743 5740 5737 5735 5732 5730 5726 5723 5719 5715 5711 5707 5702 5698 5694 5690 5685 5680 5676 5671 5666 5661 5656 5651 5646 5641 5636 5633 5630 5627 5626 5624 5623
5764 5762 5760 5758 5756 5754 5751 5749 5746 5743 5740 5737 5735 5732 5729 5726 5722 5718 5714 5710 5705 5701 5696 5692 5687 5683 5678 5672 5667 5663 5658 5653 5648 5642 5637 5632 5627 5623 5620 5617 5615 5614 5613
5761 5759 5757 5755 5753 5751 5749 5746 5744 5741 5738 5735 5732 5729 5725 5722 5718 5714 5710 5705 5700 5695 5690 5686 5681 5676 5671 5665 5660 5655 5650 5644 5640 5634 5629 5624 5620 5616 5612 5609 5606 5604 5603
5758 5756 5754 5752 5750 5748 5746 5743 5741 5738 5736 5733 5729 5726 5723 5719 5715 5710 5705 5700 5695 5690 5685 5680 5675 5669 5664 5659 5654 5648 5643 5637 5633 5628 5623 5618 5613 5609 5605 5602 5599 5597 5595
5755 5753 5751 5750 5748 5746 5744 5741 5738 5736 5733 5730 5727 5724 5720 5716 5712 5707 5702 5696 5691 5685 5680 5675 5669 5664 5659 5653 5648 5643 5638 5632 5627 5622 5617 5612 5607 5603 5599 5595 5593 5590 5588
5752 5751 5749 5747 5745 5743 5741 5739 5736 5734 5731 5728 5725 5722 5718 5714 5709 5704 5698 5693 5687 5681 5675 5670 5664 5659 5653 5648 5643 5638 5633 5628 5623 5618 5612 5607 5602 5597 5593 5590 5587 5584 5581
5750 5748 5747 5745 5743 5741 5739 5737 5735 5732 5729 5726 5723 5719 5715 5711 5706 5700 5695 5689 5683 5677 5671 5666 5660 5655 5649 5644 5638 5633 5629 5624 5618 5613 5608 5603 5598 5593 5588 5584 5581 5578 5575
5747 5746 5744 5743 5741 5739 5737 5735 5733 5730 5728 5724 5721 5717 5712 5708 5703 5697 5691 5685 5680 5674 5669 5663 5657 5651 5645 5640 5635 5630 5625 5620 5614 5609 5604 5599 5594 5589 5584 5580 5576 5573 5570
5745 5744 5742 5740 5739 5737 5735 5733 5731 5728 5726 5722 5718 5714 5710 5705 5700 5694 5688 5683 5677 5671 5665 5660 5654 5648 5642 5637 5632 5626 5621 5616 5611 5605 5600 5595 5589 5584 5580 5576 5572 5568 5565
5743 5741 5740 5738 5736 5734 5732 5730 5728 5726 5723 5720 5716 5712 5707 5702 5697 5692 5686 5680 5675 5669 5663 5657 5651 5645 5639 5634 5628 5623 5618 5612 5607 5601 5596 5590 5585 5580 5576 5571 5568 5564 5561
5740 5738 5737 5735 5733 5731 5730 5728 5726 5723 5720 5717 5713 5709 5704 5700 5695 5689 5684 5678 5672 5666 5660 5655 5649 5643 5637 5632 5626 5620 5615 5609 5603 5597 5591 5586 5581 5576 5571 5567 5563 5560 5557
5737 5735 5734 5732 5730 5729 5727 5725 5723 5720 5717 5714 5710 5706 5702 5697 5692 5687 5682 5676 5670 5664 5659 5652 5646 5640 5635 5629 5623 5617 5612 5606 5600 5594 5588 5582 5577 5573 5568 5564 5560 5556 5553
5733 5732 5731 5729 5727 5725 5724 5722 5720 5717 5714 5711 5707 5703 5700 5695 5690 5685 5680 5674 5668 5663 5657 5650 5644 5638 5632 5626 5620 5614 5608 5602 5596 5591 5585 5580 5575 5570 5566 5562 5557 5553 5550
5730 5729 5727 5725 5724 5722 5720 5718 5716 5714 5711 5708 5705 5701 5697 5693 5688 5683 5678 5672 5667 5661 5655 5648 5642 5636 5629 5623 5617 5611 5605 5600 5594 5589 5583 5578 5573 5569 5564 5559 5555 5551 5547
5726 5725 5723 5722 5720 5718 5717 5715 5713 5710 5708 5705 5702 5698 5694 5690 5686 5681 5675 5670 5664 5659 5653 5647 5640 5634 5627 5621 5615 5609 5603 5598 5592 5587 5581 5576 5571 5566 5561 5557 5552 5548 5544
5722 5721 5719 5718 5716 5715 5713 5711 5709 5707 5704 5702 5698 5695 5691 5687 5683 5678 5673 5667 5662 5656 5650 5644 5638 5632 5625 5619 5613 5607 5601 5596 5590 5585 5579 5574 5568 5563 5558 5553 5549 5546 5542
5717 5716 5715 5713 5712 5711 5709 5707 5706 5703 5701 5698 5695 5691 5688 5684 5680 5675 5670 5665 5660 5654 5648 5642 5636 5630 5624 5618 5612 5606 5600 5595 5589 5583 5577 5572 5566 5561 5555 5550 5546 5543 5540
5713 5712 5710 5709 5708 5707 5705 5704 5702 5699 5697 5694 5691 5688 5684 5681 5677 5672 5668 5663 5658 5653 5647 5641 5635 5629 5622 5616 5610 5605 5599 5594 5588 5582 5576 5571 5565 5559 5554 5549 5545 5542 5538
5708 5707 5706 5705 5704 5703 5701 5700 5698 5696 5693 5691 5688 5685 5681 5678 5674 5670 5665 5661 5656 5651 5645 5640 5634 5628 5621 5615 5609 5604 5599 5593 5587 5582 5576 5570 5564 5558 5553 5549 5545 5541 5538
5704 5703 5702 5701 5700 5699 5697 5696 5694 5692 5690 5687 5685 5682 5678 5675 5671 5667 5663 5659 5654 5649 5644 5638 5632 5627 5620 5614 5608 5603 5597 5592 5587 5581 5576 5570 5565 5559 5554 5549 5545 5542 5539
5699 5698 5698 5697 5696 5695 5694 5692 5690 5689 5686 5684 5682 5679 5676 5673 5669 5665 5661 5657 5652 5648 5642 5637 5631 5626 5620 5614 5608 5602 5597 5592 5587 5582 5576 5571 5565 5560 5555 5551 5546 5543 5539
5695 5694 5694 5693 5692 5691 5690 5688 5687 5685 5683 5681 5678 5676 5673 5670 5666 5663 5659 5655 5650 5646 5641 5636 5630 5625 5619 5613 5608 5602 5597 5592 5587 5582 5577 5571 5566 5561 5557 5552 5548 5544 5541